This is the latest recevied weather packets stored in our database for station/object W4ZHA. If no packets are shown the sender has not sent any weather packets the latest 10 day(s).
| Time | Temp. | Humidity | Pressure | Rain* | Wind** | Luminosity | Snow |
|---|---|---|---|---|---|---|---|
| 1787701805 | 26.11° C | 64% | 1016.5 hPa | 0 mm | - | 14 W/m² | - |
| 1787701501 | 26.11° C | 64% | 1016.5 hPa | 0 mm | - | 18 W/m² | - |
| 1787701195 | 26.67° C | 63% | 1016.5 hPa | 0 mm | - | 21 W/m² | - |
| 1787700892 | 27.78° C | 60% | 1016.5 hPa | 0 mm | - | 24 W/m² | - |
| 1787700587 | 27.78° C | 59% | 1016.5 hPa | 0 mm | - | 26 W/m² | - |
| 1787700283 | 28.33° C | 59% | 1016.5 hPa | 0 mm | - | 29 W/m² | - |
| 1787699979 | 28.89° C | 58% | 1016.8 hPa | 0 mm | - | 31 W/m² | - |
| 1787699674 | 28.89° C | 56% | 1016.8 hPa | 0 mm | - | 34 W/m² | - |
| 1787699364 | 29.44° C | 47% | 1016.5 hPa | 0 mm | - | 36 W/m² | - |
| 1787699059 | 29.44° C | 46% | 1016.5 hPa | 0 mm | - | 41 W/m² | - |
| 1787698755 | 30° C | 46% | 1016.5 hPa | 0 mm | - | 44 W/m² | - |
| 1787698451 | 30° C | 46% | 1016.1 hPa | 0 mm | - | 47 W/m² | - |
| 1787698147 | 30° C | 46% | 1016.5 hPa | 0 mm | - | 268 W/m² | - |
| 1787697841 | 30° C | 45% | 1016.5 hPa | 0 mm | - | 281 W/m² | - |
| 1787697536 | 30° C | 45% | 1016.8 hPa | 0 mm | - | 297 W/m² | - |
| 1787697233 | 30.56° C | 45% | 1016.5 hPa | 0 mm | - | 305 W/m² | - |
| 1787696928 | 30.56° C | 45% | 1016.5 hPa | 0 mm | - | 310 W/m² | - |
| 1787696623 | 32.22° C | 45% | 1016.5 hPa | 0 mm | - | 319 W/m² | - |
| 1787696318 | 30.56° C | 45% | 1016.5 hPa | 0 mm | - | 332 W/m² | - |
| 1787696013 | 30.56° C | 45% | 1016.5 hPa | 0 mm | - | 343 W/m² | - |
| 1787695707 | 30.56° C | 45% | 1016.5 hPa | 0 mm | - | 346 W/m² | - |
| 1787695404 | 30.56° C | 45% | 1016.5 hPa | 0 mm | - | 356 W/m² | - |
| 1787695098 | 30.56° C | 45% | 1016.5 hPa | 0 mm | - | 361 W/m² | - |
| 1787694796 | 30° C | 45% | 1016.5 hPa | 0 mm | - | 368 W/m² | - |
| 1787694494 | 30.56° C | 45% | 1016.8 hPa | 0 mm | - | 368 W/m² | - |
* Rain latest hour (hover to see other rain measurements)
** Current wind speed in m/s (hover to see current wind gust speed)